[[{"header":{"parameterUnit":"m.s-1","parameterCategory":1,"la1":30.2991,"la2":30.254,"lo1":-89.0895,"lo2":-89.0444,"dy":0.0017,"dx":0.0017,"nx":28,"ny":28,"refTime":"2024-06-11T09:00:00:Z","depth":0,"parameterNumber":2,"parameterNumberName":"U-component_of_WINDS"},"data":[0,0,0,0,0,0,0,0,0,0,0,0,0,0,0,0,0,0,0,0,0,0,0,0,0,0,0,0,0,0,0,0,0,0,0,0,0,0,0,0,0,0,0,0,0,0,0,0,0,0,0,0,0,0,0,0,0,0,-2.7827,-2.7828,0,-2.7878,-2.7879,-2.7879,-2.777,-2.7767,-2.7763,-2.776,-2.7813,-2.7818,-2.7823,0,0,0,0,0,0,0,0,0,0,0,0,0,-2.7637,-2.7641,-2.7827,-2.7828,-2.7829,-2.7878,-2.7879,-2.7879,-2.7771,-2.7767,-2.7762,-2.7758,-2.7812,-2.7817,-2.7823,0,0,0,0,0,0,0,0,0,0,0,0,0,-2.7707,-2.7642,-2.7827,-2.778,-2.7777,-2.7878,-2.7879,-2.788,-2.7772,-2.7767,-2.7761,-2.7756,-2.781,-2.7817,-2.7824,-2.7973,0,0,-2.7845,-2.7848,0,0,0,0,0,0,0,0,-2.7703,-2.7714,-2.7787,-2.7784,-2.778,-2.7812,-2.7831,-2.7911,-2.7773,-2.7774,-2.776,-2.7754,-2.7817,-2.7823,-2.7845,-2.7975,-2.7978,-2.7846,-2.785,-2.7853,-2.7855,0,0,0,0,0,0,0,-2.7698,-2.7711,-2.7847,-2.7788,-2.7784,-2.7757,-2.7761,-2.7846,-2.7825,-2.7773,-2.7766,-2.7773,-2.7815,-2.7838,-2.7845,-2.7979,-2.7846,-2.7852,-2.7856,-2.7859,-2.8234,-2.824,0,0,0,0,0,0,-2.7699,-2.7708,-2.7846,-2.7849,-2.7728,-2.7765,-2.7769,-2.7807,-2.7823,-2.7821,-2.7777,-2.7768,-2.7829,-2.7837,-2.7847,-2.8023,-2.7853,-2.786,-2.7864,-2.8229,-2.8236,-2.8242,0,0,0,0,0,0,-2.7696,-2.7713,-2.7844,-2.7776,-2.7791,-2.7774,-2.7817,-2.7811,-2.7835,-2.7827,-2.7822,-2.7806,-2.7825,-2.7837,-2.7942,-2.8023,-2.7863,-2.7869,-2.8222,-2.8231,-2.8239,-2.8377,0,0,0,0,0,0,-2.7691,-2.7712,-2.7769,-2.7778,-2.7795,-2.7939,-2.7822,-2.7816,-2.7847,-2.7835,-2.7852,-2.7849,-2.7822,-2.7932,-2.7949,-2.803,-2.7875,-2.8215,-2.8226,-2.8236,-2.8365,-2.8389,-2.841,0,0,0,0,0,-2.7684,-2.7806,-2.7772,-2.7789,-2.7865,-2.7944,-2.7953,-2.7919,-2.7854,-2.7911,-2.7905,-2.7849,-2.8011,-2.7944,-2.7962,-2.8047,-2.8209,-2.8223,-2.8235,-2.8355,-2.8385,-2.8409,0,0,0,0,0,0,-2.7807,-2.7806,-2.7769,-2.7897,-2.7922,-2.7926,-2.7996,-2.7951,-2.7994,-2.7981,-2.7936,-2.7941,-2.8056,-2.8061,-2.7986,-2.8192,-2.8099,-2.8117,-2.8184,-2.8212,-2.8234,-2.8232,-2.7881,0,0,0,0,0,-2.7849,-2.7912,-2.7908,-2.8022,-2.8036,-2.8014,-2.8047,-2.8018,-2.8041,-2.8051,-2.8053,-2.8079,-2.8135,-2.8174,-2.8225,-2.8364,-2.8367,-2.8431,-2.8454,-2.8472,-2.8488,-2.8563,-2.8592,-2.8284,-2.8284,-2.8284,0,0,-2.7936,-2.7944,-2.7987,-2.8047,-2.8062,-2.813,-2.8024,-2.8099,-2.8149,-2.8063,-2.8163,-2.8166,-2.819,-2.8314,-2.8368,-2.8322,-2.8573,-2.8488,-2.8503,-2.8509,-2.8579,-2.8608,-2.8634,-2.8293,-2.8291,-2.829,0,0,-2.813,-2.8142,-2.8238,-2.8256,-2.828,-2.8264,-2.8287,-2.8298,-2.8296,-2.8396,-2.8333,-2.8391,-2.8489,-2.8509,-2.8533,-2.8733,-2.8683,-2.8751,-2.8869,-2.8942,-2.8967,-2.8988,-2.9061,-2.9087,-2.8767,-2.8767,-2.8767,0,-2.8237,-2.8335,-2.8294,-2.8374,-2.8402,-2.8326,-2.8424,-2.8442,-2.8483,-2.8504,-2.8451,-2.8572,-2.8584,-2.8711,-2.876,-2.8781,-2.8807,-2.875,-2.8966,-2.8987,-2.9007,-2.9076,-2.9103,-2.8775,-2.8774,-2.8774,-2.8773,0,-2.8465,-2.8534,-2.8609,-2.8649,-2.8686,-2.8774,-2.8746,-2.8788,-2.8755,-2.8746,-2.8848,-2.8858,-2.8911,-2.8938,-2.8907,-2.9062,-2.9032,-2.8974,-2.888,-2.9045,-2.9109,-2.9135,-2.8787,-2.8784,-2.8782,-2.878,0,0,-2.874,-2.8755,-2.8784,-2.8801,-2.8821,-2.8874,-2.8959,-2.901,-2.9047,-2.9076,-2.9147,-2.9231,-2.9177,-2.9203,-2.9173,-2.9238,-2.9397,-2.9171,-2.9171,-2.9214,-2.9569,-2.9615,-2.9646,-2.9363,-2.9368,-2.9372,-2.9568,0,-2.8934,-2.9079,-2.9044,-2.9188,-2.9252,-2.918,-2.9254,-2.9274,-2.9267,-2.932,-2.9311,-2.9372,-2.9295,-2.9311,-2.9371,-2.9365,-2.9468,-2.935,-2.9429,-2.9433,-2.9428,-2.9679,-2.9728,-2.9913,-2.9592,-2.9596,-2.9599,0,-2.918,-2.9218,-2.937,-2.9379,-2.9405,-2.9472,-2.9515,-2.9566,-2.9588,-2.9578,-2.9607,-2.9564,-2.9648,-2.9552,-2.9667,-2.9588,-2.9618,-2.962,-2.9626,-2.9634,-2.9528,-2.9696,-2.997,-2.9999,-2.9638,-2.9635,-2.9632,0,-2.9367,-2.9457,-2.9559,-2.9576,-2.9589,-2.9638,-2.9646,-2.9662,-2.9695,-2.9733,-2.9754,-2.9801,-2.9827,-2.9865,-2.9836,-2.9768,-2.9956,-2.9858,-2.9951,-2.9952,-2.9996,-2.9994,-3.0281,-3.0012,-3.0012,-3.0011,-3.0011,0,-2.9589,-2.9684,-2.9644,-2.9707,-2.9812,-2.9769,-2.9874,-2.9874,-2.9889,-2.995,-2.989,-2.9949,-2.9906,-2.9962,-2.9939,-3.0039,-3.0051,-3.0045,-3.0039,-3.0052,-3.0053,-3.0073,-3.006,-3.0018,-3.0017,-3.0015,-3.0014,0,-2.9817,-2.9794,-2.9901,-2.9904,-2.9907,-2.9984,-2.9987,-3.0046,-3.0033,-3.0112,-3.0128,-3.0108,-3.0171,-3.0145,-3.0211,-3.0195,-3.0323,-3.0298,-3.0317,-3.0311,-3.0407,-3.0399,-3.0718,-3.0758,-3.0462,-3.0464,-3.0467,0,-2.9961,-3.0033,-3.0044,-3.0081,-3.0093,-3.0153,-3.0186,-3.0146,-3.0183,-3.0212,-3.0268,-3.0324,-3.0368,-3.0471,-3.0463,-3.0513,-3.049,-3.0598,-3.0497,-3.0509,-3.0494,-3.0491,-3.0498,-3.062,-3.0623,-3.0626,-3.0628,0,-3.022,-3.0204,-3.0254,-3.03,-3.0341,-3.0375,-3.0404,-3.0437,-3.0399,-3.0443,-3.0506,-3.0539,-3.0606,-3.0664,-3.0708,-3.0715,-3.0667,-3.0659,-3.0684,-3.07,-3.0708,-3.0707,-3.0374,-3.0653,-3.0651,-3.0649,-3.0647,-3.0646,-3.0412,-3.0472,-3.049,-3.0547,-3.0564,-3.0592,-3.0647,-3.0641,-3.0693,-3.0744,-3.0717,-3.079,-3.0809,-3.0863,-3.0877,-3.0934,-3.0892,-3.0927,-3.0936,-3.0946,-3.096,-3.0697,-3.0942,-3.0941,-3.094,-3.094,-3.0939,0,-3.0669,-3.0676,-3.0728,-3.0771,-3.0816,-3.0764,-3.0793,-3.0834,-3.0899,-3.0921,-3.0964,-3.1037,-3.1092,-3.1087,-3.1138,-3.1184,-3.1163,-3.1199,-3.1197,-3.1199,-3.0994,-3.0968,-3.1215,-3.1215,-3.1215,-3.1215,-3.1215,-3.1215,-3.0808,-3.0908,-3.0894,-3.1002,-3.1008,-3.108,-3.1101,-3.1126,-3.1143,-3.1226,-3.1272,-3.1268,-3.1279,-3.133,-3.1378,-3.1375,-3.1398,-3.1443,-3.1432,-3.1241,-3.1214,-3.1188,-3.1164,-3.1448,-3.1448,-3.1633,-3.1634,-3.1636]},{"header":{"parameterUnit":"m.s-1","parameterCategory":1,"la1":30.2991,"la2":30.254,"lo1":-89.0895,"lo2":-89.0444,"dy":0.0017,"dx":0.0017,"nx":28,"ny":28,"refTime":"2024-06-11T09:00:00:Z","depth":0,"parameterNumber":3,"parameterNumberName":"V-component_of_WINDS"},"data":[0,0,0,0,0,0,0,0,0,0,0,0,0,0,0,0,0,0,0,0,0,0,0,0,0,0,0,0,0,0,0,0,0,0,0,0,0,0,0,0,0,0,0,0,0,0,0,0,0,0,0,0,0,0,0,0,0,0,-3.7682,-3.7682,0,-3.7717,-3.7718,-3.7718,-3.7676,-3.7674,-3.7673,-3.7671,-3.7705,-3.7707,-3.7709,0,0,0,0,0,0,0,0,0,0,0,0,0,-3.7574,-3.7576,-3.7682,-3.7682,-3.7683,-3.7717,-3.7718,-3.7718,-3.7676,-3.7674,-3.7672,-3.767,-3.7704,-3.7707,-3.771,0,0,0,0,0,0,0,0,0,0,0,0,0,-3.7616,-3.7577,-3.7682,-3.7666,-3.7665,-3.7717,-3.7718,-3.7718,-3.7676,-3.7674,-3.7672,-3.7669,-3.7703,-3.7707,-3.771,-3.7779,0,0,-3.7721,-3.7722,0,0,0,0,0,0,0,0,-3.7614,-3.762,-3.7668,-3.7667,-3.7666,-3.769,-3.7692,-3.7739,-3.7677,-3.7672,-3.7671,-3.7668,-3.7702,-3.7705,-3.7717,-3.7781,-3.7782,-3.7721,-3.7723,-3.7725,-3.7726,0,0,0,0,0,0,0,-3.7611,-3.7618,-3.7696,-3.7668,-3.7667,-3.7656,-3.7659,-3.7701,-3.7699,-3.7672,-3.7669,-3.7674,-3.7701,-3.7713,-3.7717,-3.7783,-3.7721,-3.7724,-3.7726,-3.7728,-3.7903,-3.7905,0,0,0,0,0,0,-3.761,-3.7616,-3.7695,-3.7697,-3.7634,-3.766,-3.7663,-3.7684,-3.7699,-3.7699,-3.7676,-3.7672,-3.7709,-3.7713,-3.7718,-3.7799,-3.7725,-3.7728,-3.773,-3.79,-3.7903,-3.7906,0,0,0,0,0,0,-3.7608,-3.7618,-3.7693,-3.7656,-3.7665,-3.7664,-3.7688,-3.7686,-3.7699,-3.7702,-3.7701,-3.769,-3.7707,-3.7713,-3.7764,-3.7799,-3.773,-3.7733,-3.7897,-3.7901,-3.7905,-3.7961,0,0,0,0,0,0,-3.7605,-3.7617,-3.7644,-3.7657,-3.7667,-3.774,-3.769,-3.7689,-3.7706,-3.7701,-3.7714,-3.7714,-3.7706,-3.7759,-3.7768,-3.7803,-3.7736,-3.7894,-3.7899,-3.7904,-3.7956,-3.7966,-3.7975,0,0,0,0,0,-3.7601,-3.7659,-3.7646,-3.7656,-3.7701,-3.7742,-3.7747,-3.7737,-3.7709,-3.7735,-3.7737,-3.7714,-3.7794,-3.7765,-3.7774,-3.7811,-3.7892,-3.7898,-3.7903,-3.7951,-3.7964,-3.7975,0,0,0,0,0,0,-3.765,-3.766,-3.7646,-3.7709,-3.7725,-3.7735,-3.7768,-3.7751,-3.7774,-3.7768,-3.7753,-3.7757,-3.781,-3.7816,-3.7782,-3.7877,-3.7838,-3.7846,-3.7872,-3.7884,-3.7893,-3.789,-3.7739,0,0,0,0,0,-3.7668,-3.7701,-3.7708,-3.7763,-3.7772,-3.7769,-3.7786,-3.7776,-3.7792,-3.7798,-3.7803,-3.7818,-3.7847,-3.7866,-3.7892,-3.7957,-3.7958,-3.7986,-3.7996,-3.8004,-3.801,-3.8043,-3.8055,-3.7925,-3.7925,-3.7925,0,0,-3.7705,-3.7715,-3.7737,-3.7773,-3.7784,-3.7817,-3.7774,-3.7812,-3.7836,-3.7804,-3.7851,-3.7856,-3.7872,-3.7929,-3.7955,-3.7935,-3.8047,-3.8011,-3.8017,-3.8019,-3.805,-3.8062,-3.8073,-3.7929,-3.7928,-3.7927,0,0,-3.779,-3.7802,-3.7848,-3.786,-3.7878,-3.7875,-3.7886,-3.7898,-3.79,-3.7948,-3.7924,-3.7952,-3.8002,-3.8013,-3.8026,-3.8114,-3.8093,-3.8123,-3.8172,-3.8205,-3.8215,-3.8224,-3.8254,-3.8265,-3.813,-3.813,-3.813,0,-3.7834,-3.7885,-3.7874,-3.7913,-3.7929,-3.7901,-3.7947,-3.7959,-3.7984,-3.7994,-3.7973,-3.8034,-3.8042,-3.8101,-3.8123,-3.8134,-3.8145,-3.8121,-3.8214,-3.8223,-3.8231,-3.826,-3.8271,-3.8134,-3.8133,-3.8133,-3.8133,0,-3.7937,-3.7973,-3.8008,-3.8033,-3.8053,-3.8095,-3.8089,-3.811,-3.8098,-3.8098,-3.8146,-3.8156,-3.8183,-3.8196,-3.8185,-3.8253,-3.824,-3.8217,-3.8177,-3.8247,-3.8274,-3.8284,-3.8138,-3.8137,-3.8136,-3.8135,0,0,-3.8053,-3.8071,-3.8084,-3.8095,-3.8112,-3.8138,-3.8179,-3.8206,-3.8223,-3.8241,-3.8273,-3.8316,-3.8294,-3.8308,-3.8298,-3.8327,-3.8394,-3.8299,-3.8299,-3.8315,-3.8467,-3.8483,-3.8496,-3.8381,-3.8383,-3.8384,-3.8465,0,-3.8137,-3.8208,-3.8198,-3.8266,-3.8297,-3.8271,-3.8306,-3.8319,-3.8319,-3.8345,-3.8345,-3.8375,-3.8344,-3.8352,-3.838,-3.838,-3.8424,-3.8374,-3.8409,-3.841,-3.8404,-3.851,-3.8528,-3.8604,-3.8475,-3.8477,-3.8478,0,-3.8244,-3.8267,-3.8337,-3.8348,-3.8361,-3.8392,-3.8415,-3.8441,-3.8455,-3.8453,-3.8469,-3.8454,-3.8492,-3.8453,-3.8505,-3.8472,-3.8485,-3.8488,-3.849,-3.8492,-3.8448,-3.8513,-3.8628,-3.8639,-3.8495,-3.8494,-3.8492,0,-3.832,-3.8367,-3.8415,-3.8425,-3.8439,-3.8462,-3.8469,-3.8481,-3.8497,-3.8517,-3.8527,-3.8552,-3.8564,-3.8583,-3.8574,-3.8547,-3.8627,-3.8588,-3.8625,-3.8626,-3.8642,-3.8641,-3.8759,-3.8654,-3.8654,-3.8654,-3.8653,0,-3.8414,-3.8457,-3.8449,-3.8478,-3.8526,-3.8514,-3.8561,-3.8565,-3.8575,-3.8604,-3.8583,-3.861,-3.8597,-3.8623,-3.8616,-3.8659,-3.8666,-3.8664,-3.8661,-3.8665,-3.8665,-3.8673,-3.8666,-3.8657,-3.8656,-3.8655,-3.8655,0,-3.8505,-3.8502,-3.8552,-3.8561,-3.8565,-3.8599,-3.8606,-3.8633,-3.8632,-3.8668,-3.8675,-3.8673,-3.8702,-3.8695,-3.8727,-3.8723,-3.8776,-3.8768,-3.8772,-3.8769,-3.8806,-3.8802,-3.8932,-3.8948,-3.8834,-3.8835,-3.8836,0,-3.8565,-3.8598,-3.861,-3.8628,-3.8637,-3.8666,-3.8682,-3.8672,-3.869,-3.8708,-3.8732,-3.8759,-3.878,-3.8827,-3.8828,-3.8851,-3.8842,-3.8886,-3.8846,-3.8848,-3.8841,-3.8838,-3.8841,-3.8894,-3.8895,-3.8896,-3.8897,0,-3.867,-3.8666,-3.8691,-3.8715,-3.8736,-3.8754,-3.8771,-3.8786,-3.8777,-3.8798,-3.8827,-3.8844,-3.8876,-3.8902,-3.8924,-3.893,-3.8911,-3.891,-3.892,-3.8923,-3.8923,-3.8921,-3.8792,-3.8907,-3.8906,-3.8905,-3.8905,-3.8904,-3.8746,-3.8773,-3.8786,-3.8814,-3.8825,-3.8841,-3.8866,-3.8868,-3.8892,-3.8918,-3.891,-3.8943,-3.8955,-3.8983,-3.8991,-3.9016,-3.8999,-3.9014,-3.9017,-3.902,-3.9024,-3.892,-3.902,-3.902,-3.902,-3.9019,-3.9019,0,-3.8848,-3.8855,-3.8881,-3.8904,-3.8926,-3.8908,-3.8925,-3.8944,-3.8974,-3.8987,-3.9008,-3.9041,-3.9066,-3.9069,-3.9093,-3.9112,-3.9104,-3.9118,-3.9116,-3.9117,-3.9039,-3.9027,-3.9124,-3.9124,-3.9124,-3.9124,-3.9124,-3.9124,-3.8903,-3.8948,-3.8946,-3.8995,-3.9002,-3.9035,-3.9045,-3.9059,-3.9069,-3.9107,-3.9129,-3.913,-3.9138,-3.9162,-3.9185,-3.9184,-3.9193,-3.9211,-3.9207,-3.9133,-3.9123,-3.9113,-3.9102,-3.9213,-3.9213,-3.9283,-3.9284,-3.9284]}]]